Theta_e
308 308 308 308 308 308 307 308 309 308 308 308 309 310 308 306 306 306 305 306 307 308
309 309 309 309 308 309 308 310 309 308 307 307 307 308 307 305 305 305 305 308 305 305
308 310 310 310 309 308 308 308 308 307 306 306 306 306 305 303 305 303 304 306 309 305
309 310 310 310 309 308 308 308 308 307 307 305 304 305 305 304 304 303 302 304 304 304
309 309 309 309 309 309 308 307 307 307 306 305 304 303 304 303 303 302 303 303 303 302
307 307 308 309 309 309 308 308 307 306 306 304 303 303 303 305 303 304 306 307 305 303
306 306 307 309 309 309 308 308 307 306 305 304 303 303 303 304 302 304 305 306 305 304
307 307 309 309 309 310 309 308 308 306 304 303 304 304 302 303 302 301 301 301 302 303
308 309 308 309 309 309 308 307 307 305 303 302 305 303 304 305 302 302 301 299 300 304
309 309 309 309 309 308 307 306 305 304 303 301 302 302 301 304 306 301 301 300 300 303
309 309 309 308 307 306 307 307 305 305 304 302 304 302 301 302 305 306 302 301 301 299
309 308 311 308 306 307 306 306 306 306 305 304 303 303 300 301 303 303 304 304 302 301
309 309 309 308 305 306 307 309 309 308 307 306 307 304 301 300 302 300 303 304 306 304
309 308 309 309 308 310 311 310 311 309 307 309 305 306 302 300 300 300 300 303 306 307
Wind_Speed
5 4 3 4 4 4 4 4 5 5 5 7 8 8 6 4 4 5 5 8 6 3
5 5 4 5 4 3 4 4 6 6 6 6 8 8 7 5 7 6 6 7 6 3
4 5 5 4 5 6 5 6 6 6 5 6 7 9 7 5 7 7 7 6 8 7
4 6 5 4 5 5 5 6 6 6 6 7 7 8 7 7 7 7 7 8 8 9
4 5 5 4 5 5 5 5 6 7 6 6 6 6 6 6 6 6 7 7 10 8
3 3 3 3 4 5 5 5 6 6 6 6 6 6 6 5 6 5 7 7 8 8
2 0 1 1 3 3 4 5 6 5 5 5 5 6 6 6 6 7 5 6 6 6
1 2 3 3 3 4 4 4 5 5 4 4 4 4 6 6 6 6 6 6 5 5
2 2 2 2 3 3 3 4 3 3 2 3 3 7 9 5 4 4 4 5 5 5
3 1 1 1 3 3 3 2 3 2 1 2 4 7 7 8 3 2 3 4 5 5
3 1 2 2 2 3 2 2 2 3 4 3 4 7 9 8 5 5 3 3 4 3
3 3 4 2 4 4 2 3 3 3 4 4 6 7 7 6 5 5 5 3 3 3
4 3 4 4 5 4 4 4 4 5 6 7 7 7 7 4 2 4 4 4 5 8
4 3 4 5 3 4 5 5 5 5 6 6 7 7 9 7 2 3 3 4 4 4
Wind_Direction
23 43 26 30 12 6 349 346 347 6 9 3 3 356 350 347 349 346 346 349 337 295
11 36 29 28 23 343 354 350 356 5 22 8 8 1 355 2 359 355 353 356 351 2
0 20 26 33 20 13 359 1 360 356 23 17 14 3 358 357 356 6 358 353 357 359
15 20 30 34 18 15 16 8 4 346 13 24 23 10 6 3 359 7 357 1 3 2
40 26 39 29 23 16 18 7 356 0 25 14 20 21 12 4 356 3 7 1 18 360
58 32 29 14 22 15 6 3 1 16 36 17 6 11 10 2 347 353 12 7 22 2
123 47 25 342 10 2 3 11 9 28 42 27 2 8 4 3 6 17 13 4 9 351
242 49 41 15 353 349 4 8 22 40 41 32 15 351 351 5 9 22 9 10 5 358
201 97 63 20 2 7 357 9 14 30 30 24 351 341 354 1 6 354 16 358 345 355
123 132 59 351 15 348 316 343 348 314 305 321 318 337 350 342 305 321 332 331 329 334
118 137 278 296 314 309 297 292 277 276 266 274 284 311 329 339 314 289 283 332 348 341
189 217 257 295 297 266 257 266 245 246 269 268 281 284 321 353 357 348 319 249 306 317
230 259 244 276 274 248 235 244 240 249 238 254 266 268 289 329 326 360 344 312 283 280
240 229 229 249 273 275 270 258 251 250 262 250 250 270 258 269 273 267 301 300 297 290